[[{"header":{"parameterUnit":"m.s-1","parameterCategory":1,"la1":30.2991,"la2":30.254,"lo1":-89.0895,"lo2":-89.0444,"dy":0.0017,"dx":0.0017,"nx":28,"ny":28,"refTime":"2025-04-17T21:00:00:Z","depth":0,"parameterNumber":2,"parameterNumberName":"U-component_of_WINDS"},"data":[0,0,0,0,0,0,0,0,0,0,0,0,0,0,0,0,0,0,0,0,0,0,0,0,0,0,0,0,0,0,0,0,0,0,0,0,0,0,0,0,0,0,0,0,0,0,0,0,0,0,0,0,0,0,0,0,0,0,-4.3627,-4.3629,0,-4.3796,-4.3798,-4.38,-4.3811,-4.3809,-4.3807,-4.3805,-4.3978,-4.3984,-4.399,0,0,0,0,0,0,0,0,0,0,0,0,0,-4.3314,-4.332,-4.3627,-4.3629,-4.3631,-4.3796,-4.3798,-4.3801,-4.3811,-4.3809,-4.3806,-4.3804,-4.3975,-4.3983,-4.3991,0,0,0,0,0,0,0,0,0,0,0,0,0,-4.3463,-4.3322,-4.3627,-4.3656,-4.366,-4.3796,-4.3798,-4.3801,-4.3811,-4.3808,-4.3806,-4.3803,-4.3973,-4.3982,-4.3992,-4.4108,0,0,-4.4021,-4.4025,0,0,0,0,0,0,0,0,-4.3455,-4.3475,-4.365,-4.3654,-4.3659,-4.3779,-4.3751,-4.3904,-4.3812,-4.3754,-4.3805,-4.3801,-4.3914,-4.3928,-4.3966,-4.4117,-4.4124,-4.4022,-4.4028,-4.4032,-4.4034,0,0,0,0,0,0,0,-4.3444,-4.3467,-4.3694,-4.3652,-4.3658,-4.3662,-4.3679,-4.378,-4.3848,-4.3759,-4.376,-4.378,-4.3916,-4.3957,-4.397,-4.4126,-4.4022,-4.403,-4.4036,-4.404,-4.4383,-4.4386,0,0,0,0,0,0,-4.3428,-4.3459,-4.3689,-4.3699,-4.3548,-4.3669,-4.369,-4.3744,-4.3847,-4.386,-4.3782,-4.378,-4.3942,-4.3959,-4.3976,-4.412,-4.4032,-4.4041,-4.4046,-4.438,-4.4384,-4.4387,0,0,0,0,0,0,-4.3422,-4.3449,-4.3682,-4.3579,-4.3609,-4.3678,-4.3739,-4.3749,-4.3789,-4.3865,-4.3877,-4.3811,-4.394,-4.3963,-4.4076,-4.4126,-4.4045,-4.4054,-4.4376,-4.4381,-4.4385,-4.4407,0,0,0,0,0,0,-4.3412,-4.3446,-4.3491,-4.358,-4.3615,-4.3778,-4.3742,-4.3754,-4.3806,-4.3804,-4.3895,-4.3908,-4.394,-4.4062,-4.4085,-4.4138,-4.4061,-4.4371,-4.4378,-4.4384,-4.4402,-4.4413,-4.4421,0,0,0,0,0,-4.3401,-4.349,-4.3493,-4.352,-4.3672,-4.3781,-4.38,-4.3836,-4.381,-4.3855,-4.3904,-4.3905,-4.4118,-4.4073,-4.41,-4.4156,-4.4368,-4.4376,-4.4383,-4.4398,-4.4411,-4.4421,0,0,0,0,0,0,-4.3403,-4.3502,-4.3506,-4.3626,-4.3695,-4.3782,-4.384,-4.3848,-4.3925,-4.392,-4.3961,-4.3982,-4.4093,-4.4137,-4.4085,-4.4275,-4.424,-4.4253,-4.4242,-4.4255,-4.4264,-4.425,-4.4069,0,0,0,0,0,-4.3418,-4.3498,-4.358,-4.3678,-4.3712,-4.3771,-4.3819,-4.3841,-4.3914,-4.3943,-4.4,-4.4071,-4.4154,-4.4207,-4.4287,-4.441,-4.443,-4.4462,-4.4472,-4.4479,-4.4489,-4.4558,-4.4573,-4.4412,-4.4412,-4.4412,0,0,-4.3448,-4.3512,-4.3559,-4.368,-4.3736,-4.3818,-4.3795,-4.3882,-4.3944,-4.3956,-4.4066,-4.4111,-4.4193,-4.4311,-4.4366,-4.4351,-4.4539,-4.4489,-4.4494,-4.45,-4.4567,-4.4582,-4.4596,-4.4417,-4.4416,-4.4416,0,0,-4.3544,-4.3601,-4.3689,-4.3746,-4.3832,-4.3871,-4.3892,-4.3979,-4.4009,-4.4121,-4.4132,-4.4207,-4.4348,-4.4406,-4.4454,-4.4577,-4.458,-4.4603,-4.465,-4.4717,-4.473,-4.4741,-4.4784,-4.4799,-4.4613,-4.4613,-4.4613,0,-4.357,-4.3695,-4.3733,-4.3821,-4.3874,-4.3891,-4.3981,-4.4035,-4.4142,-4.4178,-4.416,-4.4339,-4.4396,-4.4528,-4.4558,-4.4597,-4.4623,-4.4591,-4.4725,-4.4737,-4.4748,-4.4789,-4.4805,-4.4615,-4.4615,-4.4615,-4.4615,0,-4.3723,-4.3809,-4.387,-4.3974,-4.4034,-4.4122,-4.4175,-4.4232,-4.425,-4.4291,-4.4405,-4.4474,-4.4569,-4.4603,-4.4621,-4.4739,-4.4726,-4.4716,-4.4681,-4.4764,-4.4804,-4.482,-4.4618,-4.4618,-4.4617,-4.4616,0,0,-4.3821,-4.3947,-4.3969,-4.4017,-4.4114,-4.4181,-4.4272,-4.4366,-4.4413,-4.4488,-4.4564,-4.4686,-4.4678,-4.4733,-4.4758,-4.4817,-4.4909,-4.48,-4.4802,-4.4816,-4.5043,-4.5048,-4.5066,-4.4914,-4.4917,-4.492,-4.5036,0,-4.3926,-4.4086,-4.4126,-4.4263,-4.4343,-4.4362,-4.4441,-4.451,-4.4552,-4.4627,-4.4674,-4.4758,-4.4742,-4.4775,-4.4835,-4.4885,-4.4955,-4.4878,-4.4984,-4.4988,-4.496,-4.5087,-4.5092,-4.5198,-4.5052,-4.5054,-4.5056,0,-4.407,-4.4149,-4.4294,-4.4382,-4.4417,-4.4487,-4.4577,-4.4649,-4.4728,-4.4755,-4.4818,-4.4838,-4.4934,-4.4897,-4.5029,-4.4976,-4.5023,-4.5055,-4.506,-4.5068,-4.5024,-4.5097,-4.5233,-4.5247,-4.5081,-4.5079,-4.5077,0,-4.4125,-4.4267,-4.4373,-4.4414,-4.452,-4.4568,-4.4615,-4.4692,-4.4746,-4.4826,-4.4861,-4.4951,-4.4999,-4.5069,-4.5113,-4.5082,-4.5242,-4.5209,-4.5266,-4.5265,-4.5296,-4.5293,-4.5439,-4.5331,-4.533,-4.533,-4.533,0,-4.4237,-4.4325,-4.4399,-4.4463,-4.4563,-4.4608,-4.4706,-4.4753,-4.4822,-4.4896,-4.492,-4.4989,-4.5045,-4.5123,-4.5159,-4.5262,-4.5285,-4.5309,-4.5316,-4.5305,-4.5302,-4.5333,-4.5326,-4.5334,-4.5333,-4.5333,-4.5332,0,-4.4313,-4.4367,-4.4482,-4.4575,-4.46,-4.4669,-4.4748,-4.4812,-4.4857,-4.4951,-4.4976,-4.5045,-4.5138,-4.519,-4.5307,-4.5331,-4.5447,-4.5452,-4.5419,-4.5422,-4.5476,-4.5469,-4.5645,-4.5671,-4.5548,-4.5549,-4.555,0,-4.4379,-4.4447,-4.4548,-4.4599,-4.4647,-4.473,-4.4786,-4.4836,-4.4893,-4.499,-4.5043,-4.5137,-4.5215,-4.5363,-4.5424,-4.5514,-4.552,-4.5576,-4.5533,-4.552,-4.5519,-4.5513,-4.552,-4.5582,-4.5583,-4.5584,-4.5585,0,-4.4491,-4.4515,-4.4595,-4.4686,-4.4752,-4.4826,-4.4898,-4.494,-4.5001,-4.5065,-4.5161,-4.5221,-4.5342,-4.5435,-4.5531,-4.5579,-4.5592,-4.5598,-4.5616,-4.5603,-4.558,-4.5592,-4.5437,-4.5593,-4.5592,-4.5591,-4.5591,-4.5591,-4.4563,-4.4625,-4.4705,-4.4794,-4.4855,-4.4923,-4.4988,-4.5041,-4.5122,-4.5223,-4.5248,-4.5349,-4.5429,-4.5559,-4.5611,-4.569,-4.568,-4.5706,-4.5712,-4.5717,-4.5718,-4.5571,-4.5708,-4.5708,-4.5708,-4.5708,-4.5708,0,-4.4675,-4.4728,-4.481,-4.4912,-4.4982,-4.4991,-4.5072,-4.5131,-4.5219,-4.5293,-4.537,-4.548,-4.5572,-4.5642,-4.5736,-4.5786,-4.5795,-4.5809,-4.5804,-4.5816,-4.5723,-4.5697,-4.5801,-4.5801,-4.5801,-4.5801,-4.5801,-4.5801,-4.4741,-4.4845,-4.4879,-4.5015,-4.5068,-4.5167,-4.5213,-4.5276,-4.5336,-4.5458,-4.5535,-4.558,-4.5653,-4.5753,-4.5838,-4.5857,-4.5889,-4.5902,-4.5921,-4.5832,-4.5822,-4.5812,-4.5788,-4.591,-4.591,-4.6007,-4.6008,-4.6009]},{"header":{"parameterUnit":"m.s-1","parameterCategory":1,"la1":30.2991,"la2":30.254,"lo1":-89.0895,"lo2":-89.0444,"dy":0.0017,"dx":0.0017,"nx":28,"ny":28,"refTime":"2025-04-17T21:00:00:Z","depth":0,"parameterNumber":3,"parameterNumberName":"V-component_of_WINDS"},"data":[0,0,0,0,0,0,0,0,0,0,0,0,0,0,0,0,0,0,0,0,0,0,0,0,0,0,0,0,0,0,0,0,0,0,0,0,0,0,0,0,0,0,0,0,0,0,0,0,0,0,0,0,0,0,0,0,0,0,3.7135,3.7134,0,3.713,3.713,3.713,3.7084,3.7083,3.7082,3.7081,3.7076,3.7077,3.7078,0,0,0,0,0,0,0,0,0,0,0,0,0,3.7105,3.7106,3.7135,3.7134,3.7134,3.713,3.713,3.713,3.7084,3.7083,3.7082,3.708,3.7076,3.7077,3.7078,0,0,0,0,0,0,0,0,0,0,0,0,0,3.7111,3.7106,3.7135,3.7111,3.7109,3.713,3.713,3.713,3.7085,3.7083,3.7081,3.708,3.7075,3.7077,3.7078,3.7121,0,0,3.7082,3.7083,0,0,0,0,0,0,0,0,3.7111,3.7112,3.7115,3.7113,3.7111,3.7106,3.7118,3.7127,3.7085,3.7094,3.7081,3.7079,3.7087,3.7088,3.709,3.7121,3.712,3.7083,3.7083,3.7084,3.7084,0,0,0,0,0,0,0,3.711,3.7112,3.7133,3.7115,3.7112,3.7101,3.71,3.7119,3.71,3.7093,3.709,3.709,3.7086,3.7089,3.709,3.712,3.7083,3.7084,3.7085,3.7085,3.7186,3.7187,0,0,0,0,0,0,3.7113,3.7112,3.7133,3.7132,3.7106,3.7103,3.7102,3.7109,3.71,3.7097,3.7091,3.7088,3.7088,3.7088,3.709,3.7139,3.7084,3.7085,3.7086,3.7184,3.7186,3.7188,0,0,0,0,0,0,3.7113,3.7115,3.7133,3.7121,3.7123,3.7106,3.7114,3.711,3.7113,3.7099,3.7095,3.7098,3.7086,3.7088,3.7113,3.7138,3.7086,3.7087,3.7182,3.7185,3.7187,3.7238,0,0,0,0,0,0,3.7112,3.7116,3.7131,3.7122,3.7124,3.7157,3.7115,3.7111,3.7116,3.7111,3.7104,3.7101,3.7085,3.7112,3.7115,3.7139,3.7088,3.7179,3.7183,3.7186,3.7234,3.7242,3.7249,0,0,0,0,0,3.7111,3.7146,3.7132,3.7135,3.7143,3.7158,3.7159,3.714,3.7118,3.7134,3.7124,3.7101,3.7135,3.7115,3.7118,3.7143,3.7178,3.7182,3.7186,3.7231,3.724,3.7249,0,0,0,0,0,0,3.7158,3.7144,3.7129,3.7162,3.7162,3.715,3.717,3.7151,3.7157,3.7152,3.7128,3.7127,3.7157,3.7152,3.713,3.7184,3.7153,3.7158,3.7185,3.7195,3.7202,3.7202,3.7089,0,0,0,0,0,3.7172,3.7186,3.7173,3.7203,3.7204,3.7187,3.7193,3.7178,3.7177,3.7177,3.7169,3.7169,3.718,3.7187,3.7196,3.7234,3.7231,3.7253,3.726,3.7266,3.7271,3.729,3.7299,3.7202,3.7202,3.7201,0,0,3.7201,3.7196,3.7205,3.7212,3.721,3.7225,3.7187,3.7204,3.7215,3.7179,3.7203,3.7198,3.7196,3.7228,3.7242,3.7226,3.7297,3.7272,3.7277,3.7278,3.7295,3.7305,3.7313,3.7204,3.7204,3.7203,0,0,3.7262,3.7259,3.7284,3.7283,3.7281,3.727,3.7276,3.7268,3.7263,3.7287,3.7261,3.7273,3.7292,3.7292,3.7294,3.7357,3.7336,3.736,3.7399,3.7419,3.7426,3.7433,3.7455,3.7463,3.7365,3.7365,3.7365,0,3.7299,3.7319,3.7299,3.7318,3.7322,3.7291,3.7316,3.7316,3.7317,3.732,3.7303,3.7326,3.7322,3.7354,3.7369,3.7372,3.7379,3.736,3.7427,3.7433,3.7439,3.746,3.7468,3.7368,3.7368,3.7367,3.7367,0,3.7364,3.7379,3.74,3.7402,3.7408,3.743,3.7413,3.7422,3.7407,3.7398,3.7423,3.7418,3.7426,3.7432,3.7418,3.7462,3.7452,3.7431,3.7399,3.7452,3.7471,3.7479,3.7372,3.7371,3.737,3.7369,0,0,3.7453,3.7444,3.7452,3.7452,3.7448,3.746,3.7481,3.7488,3.7496,3.7499,3.7515,3.7533,3.7513,3.7516,3.7502,3.7519,3.7568,3.7496,3.7495,3.7509,3.7616,3.7632,3.7641,3.7555,3.7557,3.7558,3.7616,0,3.7511,3.7546,3.7528,3.7565,3.7579,3.7551,3.7569,3.7569,3.7561,3.7572,3.7564,3.7576,3.755,3.7551,3.7567,3.7559,3.759,3.7555,3.757,3.7571,3.757,3.7651,3.7667,3.7723,3.7624,3.7625,3.7626,0,3.7583,3.7588,3.7627,3.762,3.7626,3.7642,3.7648,3.7659,3.7658,3.7652,3.7656,3.7637,3.7658,3.7627,3.7655,3.7631,3.7637,3.7634,3.7636,3.7636,3.7601,3.7652,3.774,3.7748,3.7637,3.7636,3.7636,0,3.7643,3.766,3.7685,3.7687,3.768,3.7693,3.7691,3.7689,3.7694,3.77,3.7703,3.7711,3.7715,3.7722,3.7707,3.7685,3.7736,3.7704,3.7731,3.7732,3.7742,3.7742,3.7831,3.7748,3.7748,3.7747,3.7747,0,3.7709,3.7733,3.7712,3.7727,3.7754,3.7735,3.7762,3.7757,3.7755,3.777,3.7746,3.776,3.7739,3.7751,3.7739,3.7764,3.7766,3.7761,3.7758,3.7763,3.7763,3.7765,3.7761,3.775,3.7749,3.7749,3.7748,0,3.778,3.7767,3.7792,3.7785,3.7784,3.7804,3.7797,3.7811,3.7803,3.7821,3.7824,3.781,3.7823,3.7809,3.7821,3.7813,3.7846,3.7837,3.7846,3.7843,3.7871,3.7869,3.7964,3.7976,3.7886,3.7887,3.7887,0,3.7823,3.7841,3.7835,3.7843,3.7843,3.7856,3.7862,3.7844,3.7851,3.7852,3.7866,3.7877,3.7885,3.7907,3.7898,3.7907,3.7898,3.7931,3.7899,3.7903,3.7897,3.7896,3.7898,3.7937,3.7938,3.7939,3.7939,0,3.7899,3.7892,3.7902,3.7909,3.7917,3.7922,3.7925,3.7933,3.7915,3.7924,3.7937,3.7943,3.7955,3.7966,3.7973,3.7971,3.7952,3.795,3.7956,3.7961,3.7966,3.7963,3.7863,3.7947,3.7947,3.7946,3.7946,3.7945,3.7957,3.7972,3.7971,3.7982,3.7983,3.7987,3.8,3.7993,3.8003,3.8012,3.8001,3.8017,3.8017,3.8024,3.8024,3.8036,3.8022,3.8032,3.8034,3.8037,3.8041,3.7965,3.8038,3.8037,3.8037,3.8037,3.8037,0,3.8032,3.803,3.8041,3.8047,3.8056,3.8038,3.8041,3.805,3.8064,3.8065,3.8074,3.8089,3.81,3.8092,3.8102,3.8113,3.8105,3.8116,3.8114,3.8114,3.8053,3.8046,3.8123,3.8122,3.8122,3.8122,3.8122,3.8122,3.8072,3.8097,3.809,3.8114,3.8112,3.8128,3.8131,3.8134,3.8135,3.8153,3.8162,3.8157,3.8155,3.8164,3.8174,3.8171,3.8175,3.819,3.8184,3.8127,3.8119,3.811,3.8104,3.8191,3.8191,3.8244,3.8245,3.8245]}]]